Regional Weather Roundup
Issued by NWS Green Bay, WI

Home | Current Version | Previous Version | Graphics & Text | Print | Product List | Glossary Off
Versions: 1 2 3 4 5 6 7 8 9 10 11 12 13 14 15 16 17 18 19 20 21 22 23 24 25 26 27 28 29 30 31 32 33 34 35 36 37 38 39 40 41 42 43 44 45 46 47 48 49 50

000
ASUS43 KGRB 251459
RWRGRB

NORTH-CENTRAL AND NORTHEAST WISCONSIN REGIONAL WEATHER ROUNDUP
NATIONAL WEATHER SERVICE GREEN BAY WI
1000 AM CDT FRI JUL 25 2014

WIZ005-009-010>012-018-019-251600-
NORTH CENTRAL WISCONSIN

CITY           SKY/WX    TMP DP  RH WIND       PRES   REMARKS
IRONWOOD       CLOUDY    66  63  88 S6        29.82F
MANITOWISH WTR NOT AVBL
ARBOR VITAE    NOT AVBL
EAGLE RIVER    NOT AVBL
LAND O LAKES   NOT AVBL
RHINELANDER    CLOUDY    63  58  83 S9        29.89F
PHILLIPS       NOT AVBL
ANTIGO         NOT AVBL
TOMAHAWK       NOT AVBL
MERRILL        NOT AVBL
$$

WIZ013-073-251600-
NORTHEAST WISCONSIN

CITY           SKY/WX    TMP DP  RH WIND       PRES   REMARKS
IRON MOUNTAIN  PTSUNNY   72  58  61 SW13      29.89F
MARINETTE      PTSUNNY   68  57  68 W6        29.91F
$$

WIZ017-030-035>037-045-251600-
CENTRAL WISCONSIN

CITY           SKY/WX    TMP DP  RH WIND       PRES   REMARKS
MEDFORD        NOT AVBL
WAUSAU         CLOUDY    64  59  83 S8        29.90F
MOSINEE        PTSUNNY   64  61  88 S10       29.92F
MARSHFIELD     LGT RAIN  63  59  87 SW9       29.92R
WISC RAPIDS    CLOUDY    66  58  75 S10       29.94R
STEVENS POINT  NOT AVBL
WAUPACA        NOT AVBL
SHAWANO        NOT AVBL
CLINTONVILLE   NOT AVBL
$$

WIZ038-039-048-051-251600-
FOX VALLEY

CITY           SKY/WX    TMP DP  RH WIND       PRES   REMARKS
NWS GREEN BAY  CLOUDY    68  57  68 S10       29.93F
APPLETON       NOT AVBL
OSHKOSH        PTSUNNY   68  57  68 S14       29.92F
FOND DU LAC    PTSUNNY   67  55  65 S13       29.94F
$$

WIZ022-050-052-251600-
EAST CENTRAL WISCONSIN

CITY           SKY/WX    TMP DP  RH WIND       PRES   REMARKS
STURGEON BAY   PTSUNNY   72  55  56 SW14      29.94F
MANITOWOC      NOT AVBL
SHEBOYGAN      CLOUDY    67  55  65 SW13      29.97F
$$

LMZ563-521-522-541>543-251600-
LAKESHORE

STATION/POSITION TIME  TEMP    WIND        PRES    VSBY  WAVE
                       AIR SEA DIR/SP/G                  HT/PER
                 (UTC) (F)     (DEG/KT/KT) (MB)    (MI)  (FT/S)
SHEBOYGAN LKSHOR 1400   68     220/ 11/ 12 1015.9F
KEWAUNEE LKSHORE 1400   70     250/  7/ 11 1015.1F
NORTHPORT PIER   1400   70     230/  8/ 15 1013.5F
N MID LAKE BUOY  1400   58 54  210/ 10/ 12 1014.3F         2/ 3
CHAMBERS ISLAND  1400   65     200/  6/ 10 1014.6S
MENOMINEE LKSHOR 1400   67     220/  9/ 13 1014.3F
$$


USA.gov is the U.S. government's official web portal to all federal, state and local government web resources and services.